owner,sensor,date,latitude,longitude,vertical_datum,mass_concentration_of_oxygen_in_sea_water,qcFlag 
SCCF RECON,ioos:station:SCCF:12:1,2010-11-01T00:00:00Z,26.4966,-82.1479,2.17,6.15,1111122 
SCCF RECON,ioos:station:SCCF:12:1,2010-11-01T01:00:00Z,26.4966,-82.1479,2.24,6.22,1111122 
SCCF RECON,ioos:station:SCCF:12:1,2010-11-01T02:00:00Z,26.4966,-82.1479,2.272,6.13,1111122 
SCCF RECON,ioos:station:SCCF:12:1,2010-11-01T03:00:00Z,26.4966,-82.1479,2.263,6.22,1111122 
SCCF RECON,ioos:station:SCCF:12:1,2010-11-01T04:00:00Z,26.4966,-82.1479,2.21,6.24,1111122 
SCCF RECON,ioos:station:SCCF:12:1,2010-11-01T05:00:00Z,26.4966,-82.1479,2.111,6.25,1111122 
SCCF RECON,ioos:station:SCCF:12:1,2010-11-01T06:00:00Z,26.4966,-82.1479,2.034,5.75,1111122 
SCCF RECON,ioos:station:SCCF:12:1,2010-11-01T07:00:00Z,26.4966,-82.1479,1.969,5.95,1111122 
SCCF RECON,ioos:station:SCCF:12:1,2010-11-01T08:00:00Z,26.4966,-82.1479,1.92,5.85,1111122 
SCCF RECON,ioos:station:SCCF:12:1,2010-11-01T09:00:00Z,26.4966,-82.1479,1.96,5.78,1111122 
SCCF RECON,ioos:station:SCCF:12:1,2010-11-01T10:00:00Z,26.4966,-82.1479,2.05,5.65,1111122 
SCCF RECON,ioos:station:SCCF:12:1,2010-11-01T11:00:00Z,26.4966,-82.1479,2.159,5.59,1111122 
SCCF RECON,ioos:station:SCCF:12:1,2010-11-01T12:00:00Z,26.4966,-82.1479,2.25,5.54,1111122 
SCCF RECON,ioos:station:SCCF:12:1,2010-11-01T13:00:00Z,26.4966,-82.1479,2.308,5.39,1111122 
SCCF RECON,ioos:station:SCCF:12:1,2010-11-01T14:00:00Z,26.4966,-82.1479,2.32,5.62,1111122 
SCCF RECON,ioos:station:SCCF:12:1,2010-11-01T15:00:00Z,26.4966,-82.1479,2.27,5.52,1111122 
SCCF RECON,ioos:station:SCCF:12:1,2010-11-01T16:00:00Z,26.4966,-82.1479,2.19,5.64,1111122 
SCCF RECON,ioos:station:SCCF:12:1,2010-11-01T17:00:00Z,26.4966,-82.1479,2.072,6.17,1111122 
SCCF RECON,ioos:station:SCCF:12:1,2010-11-01T18:00:00Z,26.4966,-82.1479,1.951,5.7,1111122 
SCCF RECON,ioos:station:SCCF:12:1,2010-11-01T19:00:00Z,26.4966,-82.1479,1.86,6.2,1111122 
SCCF RECON,ioos:station:SCCF:12:1,2010-11-01T20:00:00Z,26.4966,-82.1479,1.805,6.06,1111122 
SCCF RECON,ioos:station:SCCF:12:1,2010-11-01T21:00:00Z,26.4966,-82.1479,1.812,6.4,1111122 
SCCF RECON,ioos:station:SCCF:12:1,2010-11-01T22:00:00Z,26.4966,-82.1479,1.9,6.43,1111122 
SCCF RECON,ioos:station:SCCF:12:1,2010-11-01T23:00:00Z,26.4966,-82.1479,2.038,6.15,1111122 
SCCF RECON,ioos:station:SCCF:12:1,2010-11-02T00:00:00Z,26.4966,-82.1479,2.16,5.83,1111122 
SCCF RECON,ioos:station:SCCF:12:1,2010-11-02T01:00:00Z,26.4966,-82.1479,2.249,5.36,1111122 
SCCF RECON,ioos:station:SCCF:12:1,2010-11-02T02:00:00Z,26.4966,-82.1479,2.317,6.05,1111122 
SCCF RECON,ioos:station:SCCF:12:1,2010-11-02T03:00:00Z,26.4966,-82.1479,2.318,6.01,1111122 
SCCF RECON,ioos:station:SCCF:12:1,2010-11-02T04:00:00Z,26.4966,-82.1479,2.25,6.07,1111122 
SCCF RECON,ioos:station:SCCF:12:1,2010-11-02T05:00:00Z,26.4966,-82.1479,2.16,5.96,1111122 
SCCF RECON,ioos:station:SCCF:12:1,2010-11-02T06:00:00Z,26.4966,-82.1479,2.048,5.77,1111122 
SCCF RECON,ioos:station:SCCF:12:1,2010-11-02T07:00:00Z,26.4966,-82.1479,1.923,5.56,1111122 
SCCF RECON,ioos:station:SCCF:12:1,2010-11-02T08:00:00Z,26.4966,-82.1479,1.817,5.3,1111122 
SCCF RECON,ioos:station:SCCF:12:1,2010-11-02T09:00:00Z,26.4966,-82.1479,1.751,5.44,1111122 
SCCF RECON,ioos:station:SCCF:12:1,2010-11-02T10:00:00Z,26.4966,-82.1479,1.771,5.62,1111122 
SCCF RECON,ioos:station:SCCF:12:1,2010-11-02T11:00:00Z,26.4966,-82.1479,1.891,5.48,1111122 
SCCF RECON,ioos:station:SCCF:12:1,2010-11-02T12:00:00Z,26.4966,-82.1479,2.029,5.39,1111122 
SCCF RECON,ioos:station:SCCF:12:1,2010-11-02T13:00:00Z,26.4966,-82.1479,2.13,5.43,1111122 
SCCF RECON,ioos:station:SCCF:12:1,2010-11-02T14:00:00Z,26.4966,-82.1479,2.219,5.43,1111122 
SCCF RECON,ioos:station:SCCF:12:1,2010-11-02T15:00:00Z,26.4966,-82.1479,2.259,5.65,1111122 
SCCF RECON,ioos:station:SCCF:12:1,2010-11-02T16:00:00Z,26.4966,-82.1479,2.229,5.85,1111122 
SCCF RECON,ioos:station:SCCF:12:1,2010-11-02T17:00:00Z,26.4966,-82.1479,2.144,5.85,1111122 
SCCF RECON,ioos:station:SCCF:12:1,2010-11-02T18:00:00Z,26.4966,-82.1479,2.034,6.05,1111122 
SCCF RECON,ioos:station:SCCF:12:1,2010-11-02T19:00:00Z,26.4966,-82.1479,1.922,6.03,1111122 
SCCF RECON,ioos:station:SCCF:12:1,2010-11-02T20:00:00Z,26.4966,-82.1479,1.84,6.23,1111122 
SCCF RECON,ioos:station:SCCF:12:1,2010-11-02T21:00:00Z,26.4966,-82.1479,1.789,6.04,1111122 
SCCF RECON,ioos:station:SCCF:12:1,2010-11-02T22:00:00Z,26.4966,-82.1479,1.83,6.17,1111122 
SCCF RECON,ioos:station:SCCF:12:1,2010-11-02T23:00:00Z,26.4966,-82.1479,1.96,6.16,1111122 
SCCF RECON,ioos:station:SCCF:12:1,2010-11-03T00:00:00Z,26.4966,-82.1479,2.11,5.9,1111122 
SCCF RECON,ioos:station:SCCF:12:1,2010-11-03T01:00:00Z,26.4966,-82.1479,2.225,5.61,1111122 
SCCF RECON,ioos:station:SCCF:12:1,2010-11-03T02:00:00Z,26.4966,-82.1479,2.32,5.74,1111122 
SCCF RECON,ioos:station:SCCF:12:1,2010-11-03T03:00:00Z,26.4966,-82.1479,2.386,5.77,1111122 
SCCF RECON,ioos:station:SCCF:12:1,2010-11-03T04:00:00Z,26.4966,-82.1479,2.37,5.94,1111122 
SCCF RECON,ioos:station:SCCF:12:1,2010-11-03T05:00:00Z,26.4966,-82.1479,2.27,5.99,1111122 
SCCF RECON,ioos:station:SCCF:12:1,2010-11-03T06:00:00Z,26.4966,-82.1479,2.12,6.02,1111122 
SCCF RECON,ioos:station:SCCF:12:1,2010-11-03T07:00:00Z,26.4966,-82.1479,1.981,5.9,1111122 
SCCF RECON,ioos:station:SCCF:12:1,2010-11-03T08:00:00Z,26.4966,-82.1479,1.86,5.85,1111122 
SCCF RECON,ioos:station:SCCF:12:1,2010-11-03T09:00:00Z,26.4966,-82.1479,1.76,5.91,1111122 
SCCF RECON,ioos:station:SCCF:12:1,2010-11-03T10:00:00Z,26.4966,-82.1479,1.7,5.84,1111122 
SCCF RECON,ioos:station:SCCF:12:1,2010-11-03T11:00:00Z,26.4966,-82.1479,1.75,5.63,1111122 
SCCF RECON,ioos:station:SCCF:12:1,2010-11-03T12:00:00Z,26.4966,-82.1479,1.9,5.65,1111122 
SCCF RECON,ioos:station:SCCF:12:1,2010-11-03T13:00:00Z,26.4966,-82.1479,2.046,5.46,1111122 
SCCF RECON,ioos:station:SCCF:12:1,2010-11-03T14:00:00Z,26.4966,-82.1479,2.157,5.58,1111122 
SCCF RECON,ioos:station:SCCF:12:1,2010-11-03T15:00:00Z,26.4966,-82.1479,2.244,5.95,1111122 
SCCF RECON,ioos:station:SCCF:12:1,2010-11-03T16:00:00Z,26.4966,-82.1479,2.284,5.91,1111122 
SCCF RECON,ioos:station:SCCF:12:1,2010-11-03T17:00:00Z,26.4966,-82.1479,2.26,6.19,1111122 
SCCF RECON,ioos:station:SCCF:12:1,2010-11-03T18:00:00Z,26.4966,-82.1479,2.16,6.11,1111122 
SCCF RECON,ioos:station:SCCF:12:1,2010-11-03T19:00:00Z,26.4966,-82.1479,2.04,6.0,1111122 
SCCF RECON,ioos:station:SCCF:12:1,2010-11-03T20:00:00Z,26.4966,-82.1479,1.962,6.09,1111122 
SCCF RECON,ioos:station:SCCF:12:1,2010-11-03T21:00:00Z,26.4966,-82.1479,1.9,5.87,1111122 
SCCF RECON,ioos:station:SCCF:12:1,2010-11-03T22:00:00Z,26.4966,-82.1479,1.893,6.21,1111122 
SCCF RECON,ioos:station:SCCF:12:1,2010-11-03T23:00:00Z,26.4966,-82.1479,1.97,6.21,1111122 
SCCF RECON,ioos:station:SCCF:12:1,2010-11-04T00:00:00Z,26.4966,-82.1479,2.1,6.21,1111122 
SCCF RECON,ioos:station:SCCF:12:1,2010-11-04T01:00:00Z,26.4966,-82.1479,2.24,6.2,1111122 
SCCF RECON,ioos:station:SCCF:12:1,2010-11-04T02:00:00Z,26.4966,-82.1479,2.35,5.91,1111122 
SCCF RECON,ioos:station:SCCF:12:1,2010-11-04T03:00:00Z,26.4966,-82.1479,2.397,5.66,1111122 
SCCF RECON,ioos:station:SCCF:12:1,2010-11-04T04:00:00Z,26.4966,-82.1479,2.4,6.16,1111122 
SCCF RECON,ioos:station:SCCF:12:1,2010-11-04T05:00:00Z,26.4966,-82.1479,2.346,6.39,1111122 
SCCF RECON,ioos:station:SCCF:12:1,2010-11-04T06:00:00Z,26.4966,-82.1479,2.23,6.33,1111122 
SCCF RECON,ioos:station:SCCF:12:1,2010-11-04T07:00:00Z,26.4966,-82.1479,2.072,5.93,1111122 
SCCF RECON,ioos:station:SCCF:12:1,2010-11-04T08:00:00Z,26.4966,-82.1479,1.975,5.88,1111122 
SCCF RECON,ioos:station:SCCF:12:1,2010-11-04T09:00:00Z,26.4966,-82.1479,1.803,5.75,1111122 
SCCF RECON,ioos:station:SCCF:12:1,2010-11-04T10:00:00Z,26.4966,-82.1479,1.7,5.41,1111122 
SCCF RECON,ioos:station:SCCF:12:1,2010-11-04T11:00:00Z,26.4966,-82.1479,1.63,5.7,1111122 
SCCF RECON,ioos:station:SCCF:12:1,2010-11-04T12:00:00Z,26.4966,-82.1479,1.72,5.84,1111122 
SCCF RECON,ioos:station:SCCF:12:1,2010-11-04T13:00:00Z,26.4966,-82.1479,1.94,5.74,1111122 
SCCF RECON,ioos:station:SCCF:12:1,2010-11-04T14:00:00Z,26.4966,-82.1479,2.123,5.78,1111122 
SCCF RECON,ioos:station:SCCF:12:1,2010-11-04T15:00:00Z,26.4966,-82.1479,2.238,5.75,1111122 
SCCF RECON,ioos:station:SCCF:12:1,2010-11-04T16:00:00Z,26.4966,-82.1479,2.322,5.82,1111122 
SCCF RECON,ioos:station:SCCF:12:1,2010-11-04T17:00:00Z,26.4966,-82.1479,2.381,5.85,1111122 
SCCF RECON,ioos:station:SCCF:12:1,2010-11-04T18:00:00Z,26.4966,-82.1479,2.36,5.78,1111122 
SCCF RECON,ioos:station:SCCF:12:1,2010-11-04T19:00:00Z,26.4966,-82.1479,2.3,5.88,1111122 
SCCF RECON,ioos:station:SCCF:12:1,2010-11-04T20:00:00Z,26.4966,-82.1479,2.169,6.0,1111122 
SCCF RECON,ioos:station:SCCF:12:1,2010-11-04T21:00:00Z,26.4966,-82.1479,2.07,5.97,1111122 
SCCF RECON,ioos:station:SCCF:12:1,2010-11-04T22:00:00Z,26.4966,-82.1479,2.02,5.85,1111122 
SCCF RECON,ioos:station:SCCF:12:1,2010-11-04T23:00:00Z,26.4966,-82.1479,2.091,5.91,1111122 
SCCF RECON,ioos:station:SCCF:12:1,2010-11-05T00:00:00Z,26.4966,-82.1479,2.169,5.85,1111122 
SCCF RECON,ioos:station:SCCF:12:1,2010-11-05T01:00:00Z,26.4966,-82.1479,2.263,5.79,1111122 
SCCF RECON,ioos:station:SCCF:12:1,2010-11-05T02:00:00Z,26.4966,-82.1479,2.41,5.68,1111122 
SCCF RECON,ioos:station:SCCF:12:1,2010-11-05T03:00:00Z,26.4966,-82.1479,2.505,5.66,1111122 
SCCF RECON,ioos:station:SCCF:12:1,2010-11-05T04:00:00Z,26.4966,-82.1479,2.569,5.37,1111122 
SCCF RECON,ioos:station:SCCF:12:1,2010-11-05T05:00:00Z,26.4966,-82.1479,2.545,5.74,1111122 
SCCF RECON,ioos:station:SCCF:12:1,2010-11-05T06:00:00Z,26.4966,-82.1479,2.476,5.61,1111122 
SCCF RECON,ioos:station:SCCF:12:1,2010-11-05T07:00:00Z,26.4966,-82.1479,2.365,5.71,1111122 
SCCF RECON,ioos:station:SCCF:12:1,2010-11-05T08:00:00Z,26.4966,-82.1479,2.173,5.79,1111122 
SCCF RECON,ioos:station:SCCF:12:1,2010-11-05T09:00:00Z,26.4966,-82.1479,2.046,5.79,1111122 
SCCF RECON,ioos:station:SCCF:12:1,2010-11-05T10:00:00Z,26.4966,-82.1479,1.883,5.88,1111122 
SCCF RECON,ioos:station:SCCF:12:1,2010-11-05T11:00:00Z,26.4966,-82.1479,1.731,5.93,1111122 
SCCF RECON,ioos:station:SCCF:12:1,2010-11-05T12:00:00Z,26.4966,-82.1479,1.629,5.91,1111122 
SCCF RECON,ioos:station:SCCF:12:1,2010-11-05T13:00:00Z,26.4966,-82.1479,1.616,5.96,1111122 
SCCF RECON,ioos:station:SCCF:12:1,2010-11-05T14:00:00Z,26.4966,-82.1479,1.708,5.93,1111122 
SCCF RECON,ioos:station:SCCF:12:1,2010-11-05T15:00:00Z,26.4966,-82.1479,1.857,5.72,1111122 
SCCF RECON,ioos:station:SCCF:12:1,2010-11-05T16:00:00Z,26.4966,-82.1479,1.984,6.02,1111122 
SCCF RECON,ioos:station:SCCF:12:1,2010-11-05T17:00:00Z,26.4966,-82.1479,2.076,5.91,1111122 
SCCF RECON,ioos:station:SCCF:12:1,2010-11-05T18:00:00Z,26.4966,-82.1479,2.111,6.31,1111122 
SCCF RECON,ioos:station:SCCF:12:1,2010-11-05T19:00:00Z,26.4966,-82.1479,2.052,6.45,1111122 
SCCF RECON,ioos:station:SCCF:12:1,2010-11-05T20:00:00Z,26.4966,-82.1479,1.963,6.44,1111122 
SCCF RECON,ioos:station:SCCF:12:1,2010-11-05T21:00:00Z,26.4966,-82.1479,1.905,6.69,1111122 
SCCF RECON,ioos:station:SCCF:12:1,2010-11-05T22:00:00Z,26.4966,-82.1479,1.849,6.8,1111122 
SCCF RECON,ioos:station:SCCF:12:1,2010-11-05T23:00:00Z,26.4966,-82.1479,1.823,6.48,1111122 
SCCF RECON,ioos:station:SCCF:12:1,2010-11-06T00:00:00Z,26.4966,-82.1479,1.862,6.47,1111122 
SCCF RECON,ioos:station:SCCF:12:1,2010-11-06T01:00:00Z,26.4966,-82.1479,1.97,6.35,1111122 
SCCF RECON,ioos:station:SCCF:12:1,2010-11-06T02:00:00Z,26.4966,-82.1479,2.122,6.28,1111122 
SCCF RECON,ioos:station:SCCF:12:1,2010-11-06T03:00:00Z,26.4966,-82.1479,2.275,5.83,1111122 
SCCF RECON,ioos:station:SCCF:12:1,2010-11-06T04:00:00Z,26.4966,-82.1479,2.378,5.88,1111122 
SCCF RECON,ioos:station:SCCF:12:1,2010-11-06T05:00:00Z,26.4966,-82.1479,2.376,6.15,1111122 
SCCF RECON,ioos:station:SCCF:12:1,2010-11-06T06:00:00Z,26.4966,-82.1479,2.296,6.09,1111122 
SCCF RECON,ioos:station:SCCF:12:1,2010-11-06T07:00:00Z,26.4966,-82.1479,2.162,5.96,1111122 
SCCF RECON,ioos:station:SCCF:12:1,2010-11-06T08:00:00Z,26.4966,-82.1479,2.012,5.73,1111122 
SCCF RECON,ioos:station:SCCF:12:1,2010-11-06T09:00:00Z,26.4966,-82.1479,1.888,5.96,1111122 
SCCF RECON,ioos:station:SCCF:12:1,2010-11-06T10:00:00Z,26.4966,-82.1479,1.784,6.05,1111122 
SCCF RECON,ioos:station:SCCF:12:1,2010-11-06T11:00:00Z,26.4966,-82.1479,1.673,6.05,1111122 
SCCF RECON,ioos:station:SCCF:12:1,2010-11-06T12:00:00Z,26.4966,-82.1479,1.566,6.13,1111122 
SCCF RECON,ioos:station:SCCF:12:1,2010-11-06T13:00:00Z,26.4966,-82.1479,1.509,6.3,1111122 
SCCF RECON,ioos:station:SCCF:12:1,2010-11-06T14:00:00Z,26.4966,-82.1479,1.547,6.42,1111122 
SCCF RECON,ioos:station:SCCF:12:1,2010-11-06T15:00:00Z,26.4966,-82.1479,1.717,6.32,1111122 
SCCF RECON,ioos:station:SCCF:12:1,2010-11-06T16:00:00Z,26.4966,-82.1479,1.856,6.28,1111122 
SCCF RECON,ioos:station:SCCF:12:1,2010-11-06T17:00:00Z,26.4966,-82.1479,1.959,6.56,1111122 
SCCF RECON,ioos:station:SCCF:12:1,2010-11-06T18:00:00Z,26.4966,-82.1479,2.043,6.79,1111122 
SCCF RECON,ioos:station:SCCF:12:1,2010-11-06T19:00:00Z,26.4966,-82.1479,2.071,7.12,1111122 
SCCF RECON,ioos:station:SCCF:12:1,2010-11-06T20:00:00Z,26.4966,-82.1479,2.012,7.23,1111122 
SCCF RECON,ioos:station:SCCF:12:1,2010-11-06T21:00:00Z,26.4966,-82.1479,1.93,7.45,1111122 
SCCF RECON,ioos:station:SCCF:12:1,2010-11-06T22:00:00Z,26.4966,-82.1479,1.866,7.37,1111122 
SCCF RECON,ioos:station:SCCF:12:1,2010-11-06T23:00:00Z,26.4966,-82.1479,1.843,7.38,1111122 
SCCF RECON,ioos:station:SCCF:12:1,2010-11-07T00:00:00Z,26.4966,-82.1479,1.868,7.34,1111122 
SCCF RECON,ioos:station:SCCF:12:1,2010-11-07T01:00:00Z,26.4966,-82.1479,1.928,7.15,1111122 
SCCF RECON,ioos:station:SCCF:12:1,2010-11-07T02:00:00Z,26.4966,-82.1479,2.036,7.07,1111122 
SCCF RECON,ioos:station:SCCF:12:1,2010-11-07T03:00:00Z,26.4966,-82.1479,2.171,7.05,1111122 
SCCF RECON,ioos:station:SCCF:12:1,2010-11-07T04:00:00Z,26.4966,-82.1479,2.281,6.92,1111122 
SCCF RECON,ioos:station:SCCF:12:1,2010-11-07T05:00:00Z,26.4966,-82.1479,2.326,6.65,1111122 
SCCF RECON,ioos:station:SCCF:12:1,2010-11-07T06:00:00Z,26.4966,-82.1479,2.284,6.68,1111122 
SCCF RECON,ioos:station:SCCF:12:1,2010-11-07T07:00:00Z,26.4966,-82.1479,2.167,6.56,1111122 
SCCF RECON,ioos:station:SCCF:12:1,2010-11-07T08:00:00Z,26.4966,-82.1479,2.028,6.69,1111122 
SCCF RECON,ioos:station:SCCF:12:1,2010-11-07T09:00:00Z,26.4966,-82.1479,1.897,6.77,1111122 
SCCF RECON,ioos:station:SCCF:12:1,2010-11-07T10:00:00Z,26.4966,-82.1479,1.779,6.68,1111122 
SCCF RECON,ioos:station:SCCF:12:1,2010-11-07T11:00:00Z,26.4966,-82.1479,1.674,6.69,1111122 
SCCF RECON,ioos:station:SCCF:12:1,2010-11-07T12:00:00Z,26.4966,-82.1479,1.577,6.76,1111122 
SCCF RECON,ioos:station:SCCF:12:1,2010-11-07T13:00:00Z,26.4966,-82.1479,1.495,6.86,1111122 
SCCF RECON,ioos:station:SCCF:12:1,2010-11-07T14:00:00Z,26.4966,-82.1479,1.45,7.0,1111122 
SCCF RECON,ioos:station:SCCF:12:1,2010-11-07T15:00:00Z,26.4966,-82.1479,1.515,7.02,1111122 
SCCF RECON,ioos:station:SCCF:12:1,2010-11-07T16:00:00Z,26.4966,-82.1479,1.694,6.9,1111122 
SCCF RECON,ioos:station:SCCF:12:1,2010-11-07T17:00:00Z,26.4966,-82.1479,1.855,7.18,1111122 
SCCF RECON,ioos:station:SCCF:12:1,2010-11-07T18:00:00Z,26.4966,-82.1479,1.948,7.61,1111122 
SCCF RECON,ioos:station:SCCF:12:1,2010-11-07T19:00:00Z,26.4966,-82.1479,2.024,7.74,1111122 
SCCF RECON,ioos:station:SCCF:12:1,2010-11-07T20:00:00Z,26.4966,-82.1479,2.063,7.67,1111122 
SCCF RECON,ioos:station:SCCF:12:1,2010-11-07T21:00:00Z,26.4966,-82.1479,2.041,7.68,1111122 
SCCF RECON,ioos:station:SCCF:12:1,2010-11-07T22:00:00Z,26.4966,-82.1479,1.984,7.66,1111122 
SCCF RECON,ioos:station:SCCF:12:1,2010-11-07T23:00:00Z,26.4966,-82.1479,1.959,7.57,1111122 
SCCF RECON,ioos:station:SCCF:12:1,2010-11-08T00:00:00Z,26.4966,-82.1479,1.964,7.3,1111122 
SCCF RECON,ioos:station:SCCF:12:1,2010-11-08T01:00:00Z,26.4966,-82.1479,1.983,7.38,1111122 
SCCF RECON,ioos:station:SCCF:12:1,2010-11-08T02:00:00Z,26.4966,-82.1479,2.032,7.4,1111122 
SCCF RECON,ioos:station:SCCF:12:1,2010-11-08T03:00:00Z,26.4966,-82.1479,2.118,7.5,1111122 
SCCF RECON,ioos:station:SCCF:12:1,2010-11-08T04:00:00Z,26.4966,-82.1479,2.214,7.26,1111122 
SCCF RECON,ioos:station:SCCF:12:1,2010-11-08T05:00:00Z,26.4966,-82.1479,2.293,7.09,1111122 
SCCF RECON,ioos:station:SCCF:12:1,2010-11-08T06:00:00Z,26.4966,-82.1479,2.308,6.86,1111122 
SCCF RECON,ioos:station:SCCF:12:1,2010-11-08T07:00:00Z,26.4966,-82.1479,2.24,6.98,1111122 
SCCF RECON,ioos:station:SCCF:12:1,2010-11-08T08:00:00Z,26.4966,-82.1479,2.119,6.96,1111122 
SCCF RECON,ioos:station:SCCF:12:1,2010-11-08T09:00:00Z,26.4966,-82.1479,1.995,6.87,1111122 
SCCF RECON,ioos:station:SCCF:12:1,2010-11-08T10:00:00Z,26.4966,-82.1479,1.866,6.96,1111122 
SCCF RECON,ioos:station:SCCF:12:1,2010-11-08T11:00:00Z,26.4966,-82.1479,1.737,6.93,1111122 
SCCF RECON,ioos:station:SCCF:12:1,2010-11-08T12:00:00Z,26.4966,-82.1479,1.633,6.77,1111122 
SCCF RECON,ioos:station:SCCF:12:1,2010-11-08T13:00:00Z,26.4966,-82.1479,1.525,6.94,1111122 
SCCF RECON,ioos:station:SCCF:12:1,2010-11-08T14:00:00Z,26.4966,-82.1479,1.447,7.12,1111122 
SCCF RECON,ioos:station:SCCF:12:1,2010-11-08T15:00:00Z,26.4966,-82.1479,1.439,7.21,1111122 
SCCF RECON,ioos:station:SCCF:12:1,2010-11-08T16:00:00Z,26.4966,-82.1479,1.591,7.29,1111122 
SCCF RECON,ioos:station:SCCF:12:1,2010-11-08T17:00:00Z,26.4966,-82.1479,1.77,7.55,1111122 
SCCF RECON,ioos:station:SCCF:12:1,2010-11-08T18:00:00Z,26.4966,-82.1479,1.9,7.79,1111122 
SCCF RECON,ioos:station:SCCF:12:1,2010-11-08T19:00:00Z,26.4966,-82.1479,2.001,7.61,1111122 
SCCF RECON,ioos:station:SCCF:12:1,2010-11-08T20:00:00Z,26.4966,-82.1479,2.073,7.74,1111122 
SCCF RECON,ioos:station:SCCF:12:1,2010-11-08T21:00:00Z,26.4966,-82.1479,2.092,7.84,1111122 
SCCF RECON,ioos:station:SCCF:12:1,2010-11-08T22:00:00Z,26.4966,-82.1479,2.056,7.68,1111122 
SCCF RECON,ioos:station:SCCF:12:1,2010-11-08T23:00:00Z,26.4966,-82.1479,2.015,7.54,1111122 
SCCF RECON,ioos:station:SCCF:12:1,2010-11-09T00:00:00Z,26.4966,-82.1479,2.007,7.12,1111122 
SCCF RECON,ioos:station:SCCF:12:1,2010-11-09T01:00:00Z,26.4966,-82.1479,2.034,7.33,1111122 
SCCF RECON,ioos:station:SCCF:12:1,2010-11-09T02:00:00Z,26.4966,-82.1479,2.074,7.47,1111122 
SCCF RECON,ioos:station:SCCF:12:1,2010-11-09T03:00:00Z,26.4966,-82.1479,2.15,7.44,1111122 
SCCF RECON,ioos:station:SCCF:12:1,2010-11-09T04:00:00Z,26.4966,-82.1479,2.268,7.64,1111122 
SCCF RECON,ioos:station:SCCF:12:1,2010-11-09T05:00:00Z,26.4966,-82.1479,2.377,7.48,1111122 
SCCF RECON,ioos:station:SCCF:12:1,2010-11-09T06:00:00Z,26.4966,-82.1479,2.439,7.15,1111122 
SCCF RECON,ioos:station:SCCF:12:1,2010-11-09T07:00:00Z,26.4966,-82.1479,2.432,7.11,1111122 
SCCF RECON,ioos:station:SCCF:12:1,2010-11-09T08:00:00Z,26.4966,-82.1479,2.368,7.31,1111122 
SCCF RECON,ioos:station:SCCF:12:1,2010-11-09T09:00:00Z,26.4966,-82.1479,2.253,7.37,1111122 
SCCF RECON,ioos:station:SCCF:12:1,2010-11-09T10:00:00Z,26.4966,-82.1479,2.112,7.27,1111122 
SCCF RECON,ioos:station:SCCF:12:1,2010-11-09T11:00:00Z,26.4966,-82.1479,1.988,7.36,1111122 
SCCF RECON,ioos:station:SCCF:12:1,2010-11-09T12:00:00Z,26.4966,-82.1479,1.87,7.24,1111122 
SCCF RECON,ioos:station:SCCF:12:1,2010-11-09T13:00:00Z,26.4966,-82.1479,1.752,7.13,1111122 
SCCF RECON,ioos:station:SCCF:12:1,2010-11-09T14:00:00Z,26.4966,-82.1479,1.657,7.12,1111122 
SCCF RECON,ioos:station:SCCF:12:1,2010-11-09T15:00:00Z,26.4966,-82.1479,1.599,7.22,1111122 
SCCF RECON,ioos:station:SCCF:12:1,2010-11-09T16:00:00Z,26.4966,-82.1479,1.637,7.38,1111122 
SCCF RECON,ioos:station:SCCF:12:1,2010-11-09T17:00:00Z,26.4966,-82.1479,1.79,7.47,1111122 
SCCF RECON,ioos:station:SCCF:12:1,2010-11-09T18:00:00Z,26.4966,-82.1479,1.916,7.83,1111122 
SCCF RECON,ioos:station:SCCF:12:1,2010-11-09T19:00:00Z,26.4966,-82.1479,2.003,8.11,1111122 
SCCF RECON,ioos:station:SCCF:12:1,2010-11-09T20:00:00Z,26.4966,-82.1479,2.06,7.97,1111122 
SCCF RECON,ioos:station:SCCF:12:1,2010-11-09T21:00:00Z,26.4966,-82.1479,2.097,7.88,1111122 
SCCF RECON,ioos:station:SCCF:12:1,2010-11-09T22:00:00Z,26.4966,-82.1479,2.089,7.82,1111122 
SCCF RECON,ioos:station:SCCF:12:1,2010-11-09T23:00:00Z,26.4966,-82.1479,2.051,7.95,1111122 
SCCF RECON,ioos:station:SCCF:12:1,2010-11-10T00:00:00Z,26.4966,-82.1479,2.03,7.65,1111122 
SCCF RECON,ioos:station:SCCF:12:1,2010-11-10T01:00:00Z,26.4966,-82.1479,2.04,7.2,1111122 
SCCF RECON,ioos:station:SCCF:12:1,2010-11-10T02:00:00Z,26.4966,-82.1479,2.05,7.5,1111122 
SCCF RECON,ioos:station:SCCF:12:1,2010-11-10T03:00:00Z,26.4966,-82.1479,2.09,7.61,1111122 
SCCF RECON,ioos:station:SCCF:12:1,2010-11-10T04:00:00Z,26.4966,-82.1479,2.16,7.56,1111122 
SCCF RECON,ioos:station:SCCF:12:1,2010-11-10T05:00:00Z,26.4966,-82.1479,2.26,7.72,1111122 
SCCF RECON,ioos:station:SCCF:12:1,2010-11-10T06:00:00Z,26.4966,-82.1479,2.35,7.44,1111122 
SCCF RECON,ioos:station:SCCF:12:1,2010-11-10T07:00:00Z,26.4966,-82.1479,2.4,7.16,1111122 
SCCF RECON,ioos:station:SCCF:12:1,2010-11-10T08:00:00Z,26.4966,-82.1479,2.399,7.24,1111122 
SCCF RECON,ioos:station:SCCF:12:1,2010-11-10T09:00:00Z,26.4966,-82.1479,2.34,7.42,1111122 
SCCF RECON,ioos:station:SCCF:12:1,2010-11-10T10:00:00Z,26.4966,-82.1479,2.248,7.55,1111122 
SCCF RECON,ioos:station:SCCF:12:1,2010-11-10T11:00:00Z,26.4966,-82.1479,2.126,7.29,1111122 
SCCF RECON,ioos:station:SCCF:12:1,2010-11-10T12:00:00Z,26.4966,-82.1479,2.01,7.3,1111122 
SCCF RECON,ioos:station:SCCF:12:1,2010-11-10T13:00:00Z,26.4966,-82.1479,1.903,7.25,1111122 
SCCF RECON,ioos:station:SCCF:12:1,2010-11-10T14:00:00Z,26.4966,-82.1479,1.804,7.27,1111122 
SCCF RECON,ioos:station:SCCF:12:1,2010-11-10T15:00:00Z,26.4966,-82.1479,1.73,7.17,1111122 
SCCF RECON,ioos:station:SCCF:12:1,2010-11-10T16:00:00Z,26.4966,-82.1479,1.71,7.3,1111122 
SCCF RECON,ioos:station:SCCF:12:1,2010-11-10T17:00:00Z,26.4966,-82.1479,1.801,7.42,1111122 
SCCF RECON,ioos:station:SCCF:12:1,2010-11-10T18:00:00Z,26.4966,-82.1479,1.945,7.61,1111122 
SCCF RECON,ioos:station:SCCF:12:1,2010-11-10T19:00:00Z,26.4966,-82.1479,2.059,7.9,1111122 
SCCF RECON,ioos:station:SCCF:12:1,2010-11-10T20:00:00Z,26.4966,-82.1479,2.127,7.69,1111122 
SCCF RECON,ioos:station:SCCF:12:1,2010-11-10T21:00:00Z,26.4966,-82.1479,2.181,7.69,1111122 
SCCF RECON,ioos:station:SCCF:12:1,2010-11-10T22:00:00Z,26.4966,-82.1479,2.2,7.71,1111122 
SCCF RECON,ioos:station:SCCF:12:1,2010-11-10T23:00:00Z,26.4966,-82.1479,2.18,7.72,1111122 
SCCF RECON,ioos:station:SCCF:12:1,2010-11-11T00:00:00Z,26.4966,-82.1479,2.157,7.7,1111122 
SCCF RECON,ioos:station:SCCF:12:1,2010-11-11T01:00:00Z,26.4966,-82.1479,2.131,7.29,1111122 
SCCF RECON,ioos:station:SCCF:12:1,2010-11-11T02:00:00Z,26.4966,-82.1479,2.13,7.44,1111122 
SCCF RECON,ioos:station:SCCF:12:1,2010-11-11T03:00:00Z,26.4966,-82.1479,2.15,7.36,1111122 
SCCF RECON,ioos:station:SCCF:12:1,2010-11-11T04:00:00Z,26.4966,-82.1479,2.196,7.44,1111122 
SCCF RECON,ioos:station:SCCF:12:1,2010-11-11T05:00:00Z,26.4966,-82.1479,2.238,7.39,1111122 
SCCF RECON,ioos:station:SCCF:12:1,2010-11-11T06:00:00Z,26.4966,-82.1479,2.3,7.39,1111122 
SCCF RECON,ioos:station:SCCF:12:1,2010-11-11T07:00:00Z,26.4966,-82.1479,2.354,7.47,1111122 
SCCF RECON,ioos:station:SCCF:12:1,2010-11-11T08:00:00Z,26.4966,-82.1479,2.373,7.05,1111122 
SCCF RECON,ioos:station:SCCF:12:1,2010-11-11T09:00:00Z,26.4966,-82.1479,2.34,7.17,1111122 
SCCF RECON,ioos:station:SCCF:12:1,2010-11-11T10:00:00Z,26.4966,-82.1479,2.28,7.26,1111122 
SCCF RECON,ioos:station:SCCF:12:1,2010-11-11T11:00:00Z,26.4966,-82.1479,2.205,7.17,1111122 
SCCF RECON,ioos:station:SCCF:12:1,2010-11-11T12:00:00Z,26.4966,-82.1479,2.115,7.0,1111122 
SCCF RECON,ioos:station:SCCF:12:1,2010-11-11T13:00:00Z,26.4966,-82.1479,2.011,6.97,1111122 
SCCF RECON,ioos:station:SCCF:12:1,2010-11-11T14:00:00Z,26.4966,-82.1479,1.911,6.75,1111122 
SCCF RECON,ioos:station:SCCF:12:1,2010-11-11T15:00:00Z,26.4966,-82.1479,1.82,6.84,1111122 
SCCF RECON,ioos:station:SCCF:12:1,2010-11-11T16:00:00Z,26.4966,-82.1479,1.775,6.9,1111122 
SCCF RECON,ioos:station:SCCF:12:1,2010-11-11T17:00:00Z,26.4966,-82.1479,1.964,7.57,1111122 
SCCF RECON,ioos:station:SCCF:12:1,2010-11-11T18:00:00Z,26.4966,-82.1479,2.03,7.94,1111122 
SCCF RECON,ioos:station:SCCF:12:1,2010-11-11T19:00:00Z,26.4966,-82.1479,2.142,8.11,1111122 
SCCF RECON,ioos:station:SCCF:12:1,2010-11-11T20:00:00Z,26.4966,-82.1479,2.231,8.37,1111122 